User: anonymous   Login
Location: Ithaca
(42.4410°N, 76.4970°W)
Time: 02:48:08
(UTC-04:00)
Language:

Cosmos 1271 Rocket - Orbit

View from above orbital plane
View from above orbital plane
View from above satellite
View from above satellite

Ground track
Ground track

The orbit data is extracted from the following two-line orbital elements,

1 12465U 81046B   17147.93809128 +.00001029 +00000-0 +54702-4 0  9991
2 12465 081.2442 047.6890 0035510 030.5472 329.7814 15.13816804951309
Epoch (UTC): 27 May 2017 22:30:51
Eccentricity: 0.0035510
inclination: 81.2442°
perigee height: 500 km
apogee height: 549 km
right ascension of ascending node: 47.6890°
argument of perigee: 30.5472°
revolutions per day: 15.13816804
mean anomaly at epoch: 329.7814°
orbit number at epoch: 95130

The dashed part of the orbit path shows where the satellite is in the earth's shadow,  

DLR